Regional Weather Roundup
Issued by NWS

Home | Current Version | Previous Version | Text Only | Print | Product List | Glossary Off
Versions: 1 2 3 4 5 6 7 8 9 10 11 12 13 14 15 16 17 18 19 20 21 22 23 24 25 26 27 28 29 30 31 32 33 34 35 36 37 38 39 40 41 42 43 44 45 46 47 48 49 50

000
ASUS43 KDMX 281003
RWRIA

WEATHER ROUNDUP FOR IOWA
NATIONAL WEATHER SERVICE DES MOINES IA
500 AM CDT SAT MAY 28 2016

NOTE: "FAIR" INDICATES FEW OR NO CLOUDS BELOW 12,000 FEET WITH NO
SIGNIFICANT WEATHER AND/OR OBSTRUCTIONS TO VISIBILITY.

* - THESE STATIONS ARE NOT NWS STATIONS...THUS NOT UNDER NWS
QUALITY CONTROL.  THEY ALSO DO NOT REPORT WEATHER SUCH
AS PRECIPITATION OR FOG.

IAZ001>003-012>014-020>022-031>034-043>046-281100-
   NORTHWEST IOWA

CITY           SKY/WX    TMP DP  RH WIND       PRES   REMARKS
CARROLL *      CLOUDY    64  63  94 S6        29.72F
CHEROKEE *     LGT RAIN  63  63 100 CALM      29.72R
DENISON *      LGT RAIN  63  61  94 VRB6      29.71R
LE MARS *      CLOUDY    63  61  94 NE6       29.71S
ORANGE CITY *  LGT RAIN  63  61  94 CALM      29.72R
SHELDON *      CLOUDY    63  63 100 CALM      29.72R
SIOUX CITY     CLOUDY    64  61  90 E6        29.69R
SPENCER        LGT RAIN  64  62  93 N6        29.73S
STORM LAKE *   CLOUDY    64  63  94 SE7       29.73S
$$

IAZ055>058-069>071-079>083-090>094-281100-
   SOUTHWEST IOWA

CITY           SKY/WX    TMP DP  RH WIND       PRES   REMARKS
ATLANTIC *     CLOUDY    61  61 100 CALM      29.73S
AUDUBON *      CLOUDY    61  57  88 CALM      29.74S
CLARINDA *       N/A     59  59 100 MISG      29.75S
COUNCIL BLFS * MOCLDY    61  59  94 S7        29.73R
CRESTON *      MOCLDY    63  61  94 E3        29.76S
HARLAN  *      CLOUDY    63  61  94 CALM      29.76R
LAMONI         CLOUDY    62  61  96 E3        29.75R
RED OAK *      CLOUDY    61  59  94 CALM      29.74R
SHENANDOAH *   PTCLDY    59  59 100 S6        29.75S
$$

IAZ047>049-059>061-072>074-084-281100-
   CENTRAL IOWA

CITY           SKY/WX    TMP DP  RH WIND       PRES   REMARKS
AMES           CLOUDY    63  61  93 S7        29.73R
ANKENY *       DRIZZLE   63  63 100 S5        29.73F
BOONE *        CLOUDY    63  63 100 SW7       29.73S
CHARITON *     CLOUDY    61  61 100 SE5       29.75R
DES MOINES     CLOUDY    63  60  90 S3        29.74S
GRINNELL*      MOCLDY    61  59  94 CALM      29.74S
KNOXVILLE *    PTCLDY    61  61 100 CALM      29.73S
MARSHALLTOWN   CLOUDY    62  60  93 S6        29.72S
NEWTON *       CLOUDY    61  61 100 S3        29.73S
PELLA *        CLOUDY    61  60  96 S3        29.75S
PERRY *        LGT RAIN  64  63  94 S9        29.73F
$$

IAZ004>006-015-016-023>025-035-036-281100-
   NORTH CENTRAL IOWA

CITY           SKY/WX    TMP DP  RH WIND       PRES   REMARKS
ALGONA *       CLOUDY    63  63 100 S5        29.74R
CLARION *      CLOUDY    64  63  94 S5        29.74R
ESTHERVILLE    CLOUDY    64  63  96 CALM      29.73S
FORT DODGE *   CLOUDY    64  61  88 CALM      29.75R
MASON CITY     CLOUDY    61  61 100 CALM      29.74R FOG
FOREST CITY *  MOCLDY    61  61 100 CALM      29.73R FOG
WEBSTER CITY * CLOUDY    63  63 100 SW5       29.72R
IOWA FALLS *   MOCLDY    66  64  94 E5        29.73F FOG
$$

IAZ007>011-017>019-026>030-037>042-050>054-066-281100-
   NORTHEAST IOWA

CITY           SKY/WX    TMP DP  RH WIND       PRES   REMARKS
CEDAR RAPIDS   CLOUDY    63  63 100 SW3       29.74F
CHARLES CITY * MOCLDY    64  64 100 SE5       29.74R FOG
CLINTON *      CLOUDY    69  65  86 S15       29.76R
DECORAH *      LGT RAIN  66  66 100 CALM      29.72R
DUBUQUE        CLOUDY    65  65 100 S12       29.74R
MONTICELLO *   LGT RAIN  63  63 100 SW10      29.75R
OELWEIN *      CLOUDY    64  64 100 S6        29.75R
WATERLOO       CLOUDY    64  61  90 S7        29.73S
$$

IAZ064-065-067-068-078-281100-
   EAST CENTRAL IOWA

CITY           SKY/WX    TMP DP  RH WIND       PRES   REMARKS
DAVENPORT      CLOUDY    68  64  87 S18G26    29.76R
IOWA CITY      MOCLDY    62  61  96 CALM      29.75F
MT. PLEASANT * CLOUDY    66  66 100 S6        29.76S
MUSCATINE *    CLOUDY    66  64  94 SW8       29.76R
QUAD CITIES    PTCLDY    69  63  81 SW14      29.76R
$$

IAZ062-063-075>077-085>089-095>099-281100-
   SOUTHEAST IOWA

CITY           SKY/WX    TMP DP  RH WIND       PRES   REMARKS
BURLINGTON     MOCLDY    66  66 100 SW6       29.78R
FAIRFIELD *      N/A    N/A N/A N/A MISG        N/A
FORT MADISON * CLOUDY    66  64  94 S3        29.78S
KEOKUK *       CLOUDY    68  66  94 S8        29.77R
OSKALOOSA *      N/A     61  61 100 CALM      29.75R FOG
OTTUMWA        MOCLDY    63  62  97 S6        29.76R
WASHINGTON *   CLEAR     63 N/A N/A CALM      29.76S
$$

ABBREVIATIONS USED IN REMARKS
   TC - TEMPERATURES IN CELSIUS
  WCI - WIND CHILL INDEX
   HX - HEAT INDEX
  VSB - VISIBILITY
$$




USA.gov is the U.S. government's official web portal to all federal, state and local government web resources and services.